1484298000.12,23117,5.31,71628.0,-5.99,-10.35,-9.37,0,*69
1484298001.39,23118,5.31,71632.0,-5.99,-10.71,-9.61,0,*65
1484298002.6,23119,5.31,71630.5,-6.01,-10.97,-9.93,0,*63
1484298003.81,23120,5.31,71624.8,-6.01,-11.11,-10.01,0,*55
1484298005.03,23121,5.31,71620.0,-5.99,-11.11,-9.89,0,*6E
1484298006.26,23122,5.31,71618.3,-5.99,-10.97,-9.75,0,*61
1484298007.49,23123,5.31,71626.8,-5.99,-11.01,-9.67,0,*6D
1484298008.72,23124,5.31,71626.0,-5.97,-10.97,-9.57,0,*69
1484298009.94,23125,5.31,71630.5,-5.99,-11.11,-9.67,0,*6A
1484298011.18,23126,5.31,71626.0,-5.99,-11.19,-9.61,0,*67
1484298012.41,23127,5.31,71630.8,-6.01,-11.29,-9.75,0,*62
1484298013.65,23128,5.31,71626.3,-5.97,-11.55,-10.01,0,*51
1484298014.88,23129,5.31,71620.0,-5.97,-11.63,-9.97,0,*62
1484298016.1,23130,5.31,71624.0,-5.97,-11.67,-9.89,0,*61
1484298017.34,23131,5.31,71620.0,-5.97,-11.89,-10.15,0,*5D
1484298018.55,23132,5.31,71620.8,-5.97,-12.03,-10.15,0,*5F
1484298019.79,23133,5.31,71616.0,-5.99,-11.81,-9.93,0,*6F
1484298021.04,23134,5.31,71620.3,-5.99,-11.73,-9.79,0,*61
1484298022.3,23135,5.31,71616.3,-5.99,-11.85,-10.01,0,*5E
1484298023.55,23136,5.31,71612.8,-5.99,-11.85,-9.79,0,*6A
1484298024.77,23137,5.31,71618.3,-5.97,-11.89,-9.71,0,*61
1484298026.01,23138,5.31,71626.8,-5.95,-11.89,-9.71,0,*6C
1484298027.23,23139,5.31,71616.5,-5.97,-12.07,-9.97,0,*62
1484298028.44,23140,5.31,71618.0,-5.97,-12.21,-10.09,0,*57
1484298029.68,23141,5.31,71618.0,-5.97,-12.35,-10.15,0,*5E
1484298030.9,23142,5.31,71622.3,-5.95,-12.25,-10.09,0,*53
1484298032.14,23143,5.31,71618.0,-5.97,-12.11,-10.01,0,*5F
1484298033.35,23144,5.31,71624.3,-5.97,-12.21,-10.01,0,*5B
1484298034.58,23145,5.31,71624.5,-5.95,-12.21,-10.01,0,*58
1484298035.82,23146,5.31,71622.0,-5.95,-12.35,-10.23,0,*5E
1484298037.03,23147,5.31,71622.5,-5.95,-12.39,-10.31,0,*50
1484298038.25,23148,5.31,71626.5,-5.95,-12.47,-10.31,0,*56
1484298039.46,23149,5.31,71626.8,-5.97,-12.39,-10.31,0,*5C
1484298040.7,23150,5.31,71624.8,-5.95,-12.35,-10.23,0,*59
1484298041.91,23151,5.31,71624.5,-5.95,-12.39,-10.15,0,*51
1484298043.15,23152,5.31,71624.8,-5.97,-12.53,-10.31,0,*5A
1484298044.42,23153,5.31,71628.0,-5.95,-12.61,-10.41,0,*5F
1484298045.66,23154,5.31,71626.3,-5.95,-12.75,-10.53,0,*5E
1484298046.92,23155,5.31,71622.3,-5.97,-12.65,-10.41,0,*5F
1484298048.16,23156,5.31,71612.5,-5.95,-12.65,-10.27,0,*5E
1484298049.41,23157,5.31,71618.8,-5.95,-12.53,-10.15,0,*5B
1484298050.66,23158,5.31,71612.8,-5.95,-12.53,-10.15,0,*54
1484298051.89,23159,5.31,71612.0,-5.97,-12.75,-10.31,0,*55
1484298053.1,23160,5.31,71614.8,-5.97,-12.97,-10.45,0,*50
1484298054.32,23161,5.31,71612.0,-5.95,-12.93,-10.27,0,*53
1484298055.54,23162,5.31,71616.3,-5.95,-12.89,-10.15,0,*5A
1484298056.76,23163,5.31,71618.8,-5.95,-12.89,-10.01,0,*5E
1484298057.97,23164,5.31,71610.3,-5.97,-12.89,-10.01,0,*5B
1484298059.21,23165,5.31,71614.8,-5.97,-12.79,-10.01,0,*55
1484298060.44,23166,5.31,71610.3,-5.95,-12.65,-9.89,0,*61
1484298061.69,23167,5.31,71604.3,-5.97,-12.75,-9.83,0,*69
1484298062.92,23168,5.31,71608.3,-5.95,-12.65,-9.71,0,*68
1484298064.17,23169,5.31,71616.3,-5.97,-12.53,-9.57,0,*6A
1484298065.4,23170,5.31,71620.0,-5.97,-12.25,-9.45,0,*60
1484298066.62,23171,5.31,71614.5,-5.97,-12.11,-9.31,0,*65
1484298067.84,23172,5.31,71614.5,-5.97,-12.11,-9.31,0,*66
1484298069.06,23173,5.31,71616.5,-5.97,-11.81,-9.27,0,*6A
1484298070.26,23174,5.38,71622.8,-5.97,-11.41,-9.19,0,*6C
1484298071.45,23175,5.31,71622.8,-5.97,-11.11,-9.05,0,*65
1484298072.67,23176,5.31,71616.5,-5.97,-10.85,-9.15,0,*6B
1484298073.9,23177,5.31,71616.3,-5.97,-10.79,-9.05,0,*68
1484298075.14,23178,5.38,71618.8,-5.97,-10.71,-9.15,0,*6E
1484298076.4,23179,5.31,71612.3,-5.97,-10.67,-9.15,0,*68
1484298077.59,23180,5.31,71622.3,-5.97,-10.93,-9.31,0,*63
1484298078.84,23181,5.31,71622.3,-5.99,-11.11,-9.61,0,*62
1484298080.06,23182,5.31,71616.8,-5.99,-11.19,-9.67,0,*6F
1484298081.31,23183,5.31,71612.0,-5.99,-11.29,-9.67,0,*6D
1484298082.52,23184,5.31,71616.0,-6.01,-11.45,-9.67,0,*62
1484298083.75,23185,5.31,71618.0,-6.01,-11.45,-9.53,0,*64
1484298085.01,23186,5.31,71614.0,-5.99,-11.41,-9.49,0,*6A
1484298086.24,23187,5.31,71614.5,-6.01,-11.45,-9.37,0,*64
1484298087.47,23188,5.31,71614.3,-6.01,-11.59,-9.67,0,*63
1484298088.69,23189,5.31,71614.0,-6.01,-11.73,-9.79,0,*65
1484298089.91,23190,5.31,71608.5,-6.01,-11.73,-9.79,0,*6D
1484298091.16,23191,5.31,71610.5,-6.01,-11.55,-9.37,0,*62
1484298092.39,23192,5.31,71616.0,-6.01,-11.33,-9.19,0,*6D
1484298093.64,23193,5.31,71616.5,-6.01,-11.33,-9.11,0,*64
1484298094.84,23194,5.38,71620.5,-6.01,-11.45,-9.19,0,*6A
1484298096.07,23195,5.31,71616.5,-6.01,-11.45,-9.11,0,*63
1484298097.28,23196,5.31,71612.8,-6.01,-11.45,-9.19,0,*68
1484298098.47,23197,5.31,71614.5,-6.01,-11.15,-9.19,0,*6C
1484298099.67,23198,5.31,71614.5,-6.01,-10.89,-9.05,0,*6A
1484298100.89,23199,5.31,71618.5,-6.01,-11.11,-9.11,0,*6E
1484298102.11,23200,5.31,71620.5,-6.01,-11.19,-9.11,0,*65
1484298103.33,23201,5.38,71616.8,-6.01,-11.33,-9.31,0,*6E
1484298104.56,23202,5.31,71612.3,-6.05,-11.33,-9.27,0,*6E
1484298105.79,23203,5.38,71616.3,-6.07,-11.23,-9.31,0,*6B
1484298106.98,23204,5.31,71616.3,-6.01,-11.11,-9.19,0,*61
1484298108.18,23205,5.38,71624.0,-6.01,-11.01,-9.05,0,*6C
1484298109.39,23206,5.31,71620.5,-6.05,-10.89,-9.01,0,*6E
1484298110.61,23207,5.31,71622.5,-6.05,-10.89,-9.11,0,*6E
1484298111.84,23208,5.31,71620.5,-6.05,-10.79,-9.01,0,*6F
1484298113.08,23209,5.31,71626.8,-6.05,-10.67,-8.97,0,*6F
1484298114.28,23210,5.31,71624.5,-6.05,-10.23,-8.97,0,*67
1484298115.51,23211,5.38,71630.8,-6.05,-10.35,-9.11,0,*6E
1484298116.76,23212,5.31,71628.5,-6.05,-10.41,-9.11,0,*6E
1484298118.01,23213,5.31,71630.3,-6.05,-10.41,-9.15,0,*6B
1484298119.21,23214,5.38,71624.5,-6.05,-10.05,-8.89,0,*68
1484298120.4,23215,5.31,71624.0,-6.05,-10.09,-8.97,0,*6A
1484298121.59,23216,5.31,71626.5,-6.05,-9.93,-8.97,0,*52
1484298122.81,23217,5.31,71626.8,-6.05,-9.83,-9.01,0,*5C
1484298124.03,23218,5.31,71626.3,-6.05,-9.79,-9.11,0,*57
1484298125.27,23219,5.31,71622.8,-6.05,-9.57,-9.11,0,*5A
1484298126.47,23220,5.31,71626.0,-6.05,-9.71,-9.23,0,*55
1484298127.68,23221,5.31,71630.8,-6.01,-9.61,-9.19,0,*58
1484298128.87,23222,5.31,71624.3,-6.05,-9.67,-9.23,0,*50
1484298130.1,23223,5.31,71624.8,-6.05,-9.71,-9.37,0,*53
1484298131.32,23224,5.31,71624.0,-6.01,-9.75,-9.49,0,*5D
1484298132.53,23225,5.31,71626.3,-6.05,-9.93,-9.57,0,*5F
1484298133.77,23226,5.31,71624.5,-6.05,-9.83,-9.57,0,*5D
1484298134.97,23227,5.31,71628.0,-6.01,-10.01,-9.67,0,*69
1484298136.18,23228,5.31,71628.3,-6.01,-9.89,-9.61,0,*58
1484298137.4,23229,5.38,71628.5,-6.01,-10.01,-9.53,0,*60
1484298138.59,23230,5.31,71628.3,-6.01,-10.05,-9.67,0,*6B
1484298139.79,23231,5.31,71628.5,-6.01,-10.05,-9.75,0,*69
1484298140.99,23232,5.31,71632.0,-6.01,-10.27,-9.93,0,*62
1484298142.2,23233,5.31,71626.5,-6.01,-10.31,-10.01,0,*57
1484298143.44,23234,5.31,71624.8,-6.01,-10.63,-10.15,0,*52
1484298144.67,23235,5.31,71624.8,-6.05,-10.63,-10.05,0,*56
1484298145.89,23236,5.31,71622.8,-6.05,-10.89,-10.19,0,*5C
1484298147.1,23237,5.31,71626.5,-6.05,-10.89,-10.19,0,*5D
1484298148.31,23238,5.31,71624.3,-6.05,-11.15,-10.23,0,*5F
1484298149.52,23239,5.31,71628.0,-6.05,-10.93,-10.09,0,*59
1484298150.78,23240,5.31,71628.0,-6.07,-11.07,-9.93,0,*62
1484298151.98,23241,5.31,71628.3,-6.05,-10.93,-9.71,0,*61
1484298153.2,23242,5.31,71626.5,-6.01,-10.85,-9.49,0,*6A
1484298154.43,23243,5.31,71624.5,-6.01,-10.75,-9.23,0,*68
1484298155.65,23244,5.38,71630.0,-6.01,-10.71,-9.19,0,*62
1484298156.88,23245,5.31,71626.3,-6.01,-10.57,-9.11,0,*6F
1484298158.1,23246,5.31,71620.3,-6.01,-10.49,-9.11,0,*63
1484298159.32,23247,5.31,71618.8,-5.99,-10.31,-8.93,0,*64
1484298160.54,23248,5.31,71618.0,-5.99,-10.27,-8.97,0,*68
1484298161.77,23249,5.31,71618.8,-5.99,-10.15,-8.93,0,*6C
1484298162.98,23250,5.31,71626.8,-5.99,-10.05,-8.97,0,*61
1484298164.19,23251,5.31,71622.8,-5.99,-10.05,-9.05,0,*6A
1484298165.39,23252,5.31,71622.5,-5.97,-9.97,-8.89,0,*51
1484298166.62,23253,5.31,71624.0,-5.95,-9.83,-8.81,0,*5F
1484298167.82,23254,5.31,71622.0,-5.95,-9.89,-8.89,0,*5A
1484298169.04,23255,5.31,71626.0,-5.95,-9.83,-8.75,0,*52
1484298170.25,23256,5.31,71626.3,-5.95,-9.89,-8.81,0,*50
1484298171.44,23257,5.31,71624.3,-5.97,-9.71,-8.63,0,*58
1484298172.63,23258,5.31,71620.8,-5.95,-9.71,-8.67,0,*51
1484298173.85,23259,5.31,71624.0,-5.93,-9.75,-8.67,0,*52
1484298175.09,23260,5.31,71622.3,-5.93,-9.61,-8.55,0,*5C
1484298176.3,23261,5.31,71624.5,-5.95,-9.57,-8.55,0,*5E
1484298177.54,23262,5.31,71624.3,-5.91,-9.57,-8.51,0,*5D
1484298178.78,23263,5.31,71624.3,-5.93,-9.57,-8.63,0,*5F
1484298179.97,23264,5.31,71626.0,-5.91,-9.79,-8.75,0,*51
1484298181.16,23265,5.38,71626.8,-5.91,-9.75,-8.75,0,*5C
1484298182.36,23266,5.31,71626.8,-5.91,-9.97,-9.01,0,*51
1484298183.59,23267,5.31,71618.8,-5.93,-10.01,-8.97,0,*6B
1484298184.79,23268,5.38,71618.3,-5.91,-10.01,-9.01,0,*68
1484298186.01,23269,5.31,71616.3,-5.91,-10.05,-9.11,0,*6C
1484298187.23,23270,5.31,71628.8,-5.91,-9.83,-8.89,0,*52
1484298188.45,23271,5.31,71622.5,-5.93,-9.97,-9.05,0,*51
1484298189.72,23272,5.31,71616.5,-5.93,-9.61,-8.81,0,*56
1484298190.95,23273,5.31,71616.5,-5.93,-9.71,-8.89,0,*5E
1484298192.19,23274,5.31,71620.8,-5.93,-9.49,-8.75,0,*51
1484298193.43,23275,5.38,71622.5,-5.93,-9.57,-8.75,0,*5F
1484298194.69,23276,5.38,71628.3,-5.93,-9.61,-8.81,0,*52
1484298195.94,23277,5.31,71628.3,-5.93,-9.27,-8.51,0,*5C
1484298197.19,23278,5.31,71630.3,-5.93,-9.41,-8.55,0,*57
1484298198.44,23279,5.31,71634.5,-5.93,-9.19,-8.51,0,*5F
1484298199.66,23280,5.31,71628.8,-5.93,-9.19,-8.55,0,*5D
1484298200.88,23281,5.31,71620.0,-5.93,-9.19,-8.75,0,*5E
1484298202.13,23282,5.31,71620.8,-5.93,-9.27,-8.81,0,*5B
1484298203.37,23283,5.31,71616.3,-5.93,-9.31,-8.81,0,*5D
1484298204.57,23284,5.31,71614.8,-5.95,-9.19,-8.63,0,*5A
1484298205.79,23285,5.31,71612.5,-5.93,-9.19,-8.75,0,*5A
1484298207.04,23286,5.31,71616.0,-5.93,-9.31,-8.81,0,*58
1484298208.27,23287,5.31,71622.0,-5.95,-9.41,-8.93,0,*5B
1484298209.48,23288,5.31,71618.0,-5.95,-9.27,-8.89,0,*5F
1484298210.7,23289,5.31,71622.5,-5.95,-9.19,-8.81,0,*5B
1484298211.93,23290,5.31,71620.5,-5.95,-9.15,-8.89,0,*57
1484298213.16,23291,5.31,71624.0,-5.97,-9.15,-8.89,0,*54
1484298214.4,23292,5.31,71620.8,-5.95,-9.15,-8.93,0,*5E
1484298215.6,23293,5.31,71620.5,-5.95,-9.31,-9.01,0,*53
1484298216.8,23294,5.38,71626.0,-5.97,-9.71,-9.31,0,*51
1484298218.0,23295,5.31,71622.3,-5.97,-9.89,-9.57,0,*57
1484298219.22,23296,5.31,71622.3,-5.97,-9.97,-9.61,0,*5E
1484298220.39,23297,5.38,71622.5,-5.97,-9.89,-9.31,0,*55
1484298221.57,23298,5.31,71622.8,-5.97,-9.89,-9.31,0,*5A
1484298222.79,23299,5.31,71622.8,-5.95,-9.97,-9.45,0,*55
1484298224.01,23300,5.38,71624.5,-5.97,-10.09,-9.49,0,*65
1484298225.24,23301,5.31,71624.8,-6.01,-10.71,-9.79,0,*64
1484298226.47,23302,5.31,71620.5,-5.97,-10.71,-9.75,0,*67
1484298227.66,23303,5.31,71616.0,-6.01,-10.85,-9.89,0,*62
1484298228.91,23304,5.38,71622.5,-5.99,-10.75,-9.79,0,*67
1484298230.16,23305,5.31,71620.5,-5.99,-10.75,-9.79,0,*66
1484298231.39,23306,5.31,71620.0,-5.99,-10.97,-9.89,0,*66
1484298232.61,23307,5.38,71624.0,-5.99,-11.15,-9.93,0,*67
1484298233.88,23308,5.38,71622.3,-5.99,-11.29,-10.15,0,*51
1484298235.12,23309,5.31,71622.8,-5.99,-11.45,-10.15,0,*5A
1484298236.35,23310,5.38,71624.8,-6.01,-11.59,-10.05,0,*5C
1484298237.61,23311,5.31,71622.0,-5.99,-11.67,-10.01,0,*56
1484298238.87,23312,5.38,71630.8,-5.99,-11.73,-10.01,0,*50
1484298240.12,23313,5.38,71624.8,-5.99,-11.85,-9.93,0,*6B
1484298241.35,23314,5.31,71624.3,-6.01,-11.85,-9.93,0,*6E
1484298242.58,23315,5.38,71626.3,-6.01,-11.93,-9.79,0,*6C
1484298243.83,23316,5.31,71626.0,-6.01,-11.67,-9.61,0,*6D
1484298245.08,23317,5.31,71626.5,-5.99,-11.41,-9.37,0,*69
1484298246.33,23318,5.31,71622.0,-6.01,-11.33,-9.61,0,*62
1484298247.56,23319,5.31,71622.8,-5.99,-11.45,-9.67,0,*66
1484298248.82,23320,5.31,71624.5,-6.01,-11.29,-9.61,0,*62
1484298250.01,23321,5.38,71622.5,-6.01,-10.89,-9.23,0,*6E
1484298251.23,23322,5.38,71616.0,-6.01,-10.75,-8.97,0,*60
1484298252.46,23323,5.38,71610.8,-6.01,-10.63,-8.97,0,*66
1484298253.66,23324,5.31,71608.0,-6.01,-10.57,-8.97,0,*66
1484298254.88,23325,5.31,71606.3,-6.01,-10.19,-8.81,0,*6A
1484298256.06,23326,5.31,71602.8,-6.01,-9.93,-8.67,0,*5B
1484298257.27,23327,5.31,71610.3,-6.01,-9.61,-8.55,0,*56
1484298258.5,23328,5.38,71616.3,-5.99,-9.49,-8.55,0,*51
1484298259.71,23329,5.31,71614.0,-6.01,-9.49,-8.67,0,*53
1484298260.92,23330,5.31,71610.8,-6.01,-9.53,-8.71,0,*57
1484298262.15,23331,5.38,71618.5,-5.99,-9.49,-8.67,0,*58
1484298263.39,23332,5.38,71630.5,-5.99,-9.37,-8.55,0,*53
1484298264.63,23333,5.38,71628.5,-5.99,-9.37,-8.55,0,*52
1484298265.81,23334,5.38,71634.0,-5.97,-9.31,-8.75,0,*5F
1484298267.03,23335,5.31,71630.8,-5.97,-9.49,-8.93,0,*59
1484298268.26,23336,5.31,71630.8,-5.95,-9.45,-8.89,0,*5F
1484298269.47,23337,5.38,71626.5,-5.97,-9.31,-8.81,0,*57
1484298270.72,23338,5.31,71626.8,-5.95,-9.41,-8.81,0,*5D
1484298271.93,23339,5.38,71636.3,-5.95,-9.71,-9.01,0,*56
1484298273.13,23340,5.38,71634.8,-5.97,-9.75,-9.01,0,*5E
1484298274.35,23341,5.31,71632.3,-5.95,-9.83,-9.01,0,*54
1484298275.57,23342,5.38,71636.0,-5.93,-9.89,-9.05,0,*5F
1484298276.81,23343,5.38,71634.0,-5.93,-9.89,-9.15,0,*5F
1484298278.03,23344,5.38,71638.0,-5.93,-9.97,-8.97,0,*5C
1484298279.27,23345,5.31,71634.5,-5.93,-10.01,-9.15,0,*61
1484298280.53,23346,5.31,71636.0,-5.93,-10.23,-9.45,0,*67
1484298281.75,23347,5.38,71634.0,-5.91,-10.09,-9.57,0,*6F
1484298282.98,23348,5.38,71634.5,-5.93,-10.27,-9.75,0,*6E
1484298284.23,23349,5.38,71634.0,-5.93,-10.09,-9.57,0,*63
1484298285.43,23350,5.38,71630.8,-5.91,-10.35,-9.79,0,*6A
1484298286.68,23351,5.38,71630.0,-5.91,-10.79,-10.19,0,*5D
1484298287.91,23352,5.38,71630.0,-5.91,-10.79,-10.09,0,*5F
1484298289.14,23353,5.31,71630.0,-5.91,-10.79,-9.97,0,*61
1484298290.34,23354,5.38,71630.3,-5.91,-10.93,-9.97,0,*62
1484298291.55,23355,5.38,71632.0,-5.91,-11.11,-10.05,0,*5B
1484298292.78,23356,5.38,71634.0,-5.89,-11.01,-9.89,0,*6C
1484298294.02,23357,5.31,71632.5,-5.89,-11.19,-10.01,0,*5C
1484298295.28,23358,5.31,71630.5,-5.89,-11.67,-10.49,0,*56
1484298296.54,23359,5.38,71632.8,-5.89,-11.73,-10.49,0,*52
1484298297.8,23360,5.38,71628.8,-5.89,-11.67,-10.19,0,*58
1484298299.04,23361,5.38,71626.3,-5.87,-11.81,-10.23,0,*56
1484298300.3,23362,5.38,71628.5,-5.89,-11.97,-10.31,0,*5F
1484298301.56,23363,5.38,71634.8,-5.89,-11.85,-10.23,0,*5E
1484298302.81,23364,5.31,71632.3,-5.89,-12.39,-10.71,0,*5A
1484298304.07,23365,5.38,71636.5,-5.89,-12.79,-10.89,0,*58
1484298305.29,23366,5.38,71636.0,-5.87,-12.97,-10.97,0,*5A
1484298306.55,23367,5.38,71630.5,-5.89,-13.11,-11.07,0,*52
1484298307.78,23368,5.38,71628.8,-5.89,-13.11,-11.01,0,*5B
1484298309.01,23369,5.38,71632.0,-5.89,-13.11,-10.85,0,*57
1484298310.25,23370,5.31,71626.8,-5.93,-13.23,-10.93,0,*52
1484298311.45,23371,5.38,71634.3,-5.91,-13.15,-10.89,0,*5F
1484298312.66,23372,5.31,71630.0,-5.91,-13.07,-10.89,0,*5F
1484298313.88,23373,5.38,71630.3,-5.91,-13.19,-10.93,0,*5A
1484298315.08,23374,5.38,71630.8,-5.91,-13.47,-11.19,0,*55
1484298316.32,23375,5.38,71630.8,-5.91,-13.43,-11.37,0,*5C
1484298317.61,23376,5.38,71626.8,-5.93,-13.61,-11.55,0,*59
1484298318.89,23377,5.38,71630.3,-5.93,-13.79,-11.67,0,*50
1484298320.18,23378,5.31,71632.0,-5.93,-13.87,-11.77,0,*5F
1484298321.43,23379,5.31,71632.3,-5.93,-13.47,-11.37,0,*56
1484298322.72,23380,5.31,71624.5,-5.93,-13.33,-11.29,0,*5C
1484298323.98,23381,5.38,71614.5,-5.93,-13.07,-11.07,0,*56
1484298325.22,23382,5.38,71614.5,-5.93,-12.89,-10.97,0,*5A
1484298326.46,23383,5.38,71606.8,-5.93,-13.07,-11.15,0,*57
1484298327.67,23384,5.38,71606.3,-5.91,-12.93,-11.19,0,*52
1484298328.93,23385,5.38,71616.8,-5.91,-12.75,-11.07,0,*54
1484298330.22,23386,5.38,71630.3,-5.93,-12.65,-11.07,0,*54
1484298331.43,23387,5.38,71628.3,-5.91,-12.47,-10.89,0,*50
1484298332.66,23388,5.38,71630.5,-5.91,-12.61,-11.19,0,*53
1484298333.9,23389,5.38,71630.5,-5.91,-12.71,-11.11,0,*5B
1484298335.16,23390,5.38,71628.3,-5.93,-12.61,-10.93,0,*5B
1484298336.39,23391,5.38,71626.5,-5.91,-12.61,-10.89,0,*53
1484298337.63,23392,5.38,71630.8,-5.91,-12.47,-11.07,0,*53
1484298338.85,23393,5.38,71624.8,-5.91,-12.21,-11.01,0,*54
1484298340.08,23394,5.38,71626.5,-5.91,-12.07,-10.93,0,*5D
1484298341.3,23395,5.38,71628.0,-5.91,-12.29,-11.19,0,*53
1484298342.53,23396,5.38,71626.8,-5.91,-12.35,-11.23,0,*54
1484298343.79,23397,5.38,71626.5,-5.91,-12.35,-11.33,0,*54
1484298344.99,23398,5.38,71624.5,-5.91,-12.43,-11.11,0,*5A
1484298346.25,23399,5.38,71620.3,-5.89,-12.39,-11.07,0,*58
1484298347.49,23400,5.38,71618.5,-5.91,-12.47,-11.07,0,*5F
1484298348.73,23401,5.38,71618.0,-5.91,-12.75,-11.23,0,*59
1484298349.96,23402,5.38,71614.3,-5.87,-12.79,-11.19,0,*58
1484298351.21,23403,5.38,71626.0,-5.87,-12.83,-11.33,0,*54
1484298352.42,23404,5.38,71618.3,-5.87,-13.15,-11.45,0,*5C
1484298353.67,23405,5.38,71618.5,-5.89,-13.11,-11.33,0,*56
1484298354.89,23406,5.38,71626.8,-5.87,-13.15,-11.33,0,*5F
1484298356.1,23407,5.38,71630.3,-5.87,-13.15,-11.19,0,*56
1484298357.33,23408,5.38,71626.5,-5.89,-13.23,-11.15,0,*5E
1484298358.54,23409,5.38,71626.3,-5.87,-13.11,-11.01,0,*55
1484298359.75,23410,5.38,71630.3,-5.87,-12.97,-10.85,0,*5F
1484298360.99,23411,5.38,71632.8,-5.87,-12.97,-10.75,0,*51
1484298362.19,23412,5.38,71632.0,-5.87,-12.97,-10.85,0,*5D
1484298363.43,23413,5.38,71634.5,-5.83,-12.93,-10.67,0,*50
1484298364.66,23414,5.38,71634.0,-5.85,-13.23,-10.85,0,*57
1484298365.89,23415,5.38,71634.0,-5.85,-13.23,-10.85,0,*56
1484298367.15,23416,5.38,71638.5,-5.85,-13.19,-10.71,0,*57
1484298368.38,23417,5.38,71636.5,-5.83,-12.83,-10.57,0,*56
1484298369.61,23418,5.38,71636.8,-5.83,-12.79,-10.57,0,*5C
1484298370.84,23419,5.38,71632.8,-5.83,-12.65,-10.53,0,*54
1484298372.07,23420,5.38,71636.0,-5.83,-12.61,-10.45,0,*5D
1484298373.33,23421,5.38,71638.8,-5.85,-12.39,-10.41,0,*53
1484298374.57,23422,5.38,71628.3,-5.83,-12.53,-10.57,0,*5D
1484298375.83,23423,5.38,71630.5,-5.79,-12.35,-10.63,0,*5E
1484298377.07,23424,5.38,71632.5,-5.83,-12.53,-10.93,0,*53
1484298378.3,23425,5.38,71630.5,-5.83,-12.79,-11.11,0,*51
1484298379.5,23426,5.38,71638.5,-5.83,-12.47,-10.85,0,*53
1484298380.76,23427,5.38,71636.0,-5.83,-12.79,-11.29,0,*58
1484298382.01,23428,5.38,71638.8,-5.83,-12.83,-11.51,0,*5D
1484298383.26,23429,5.38,71638.3,-5.83,-12.65,-11.37,0,*54
1484298384.52,23430,5.38,71638.3,-5.83,-12.53,-11.29,0,*56
1484298385.75,23431,5.38,71634.3,-5.83,-12.35,-11.11,0,*5C
1484298387.01,23432,5.38,71636.5,-5.85,-12.35,-11.23,0,*58
1484298388.24,23433,5.38,71638.3,-5.85,-12.25,-11.11,0,*59
1484298389.47,23434,5.38,71636.5,-5.85,-12.25,-11.15,0,*5A
1484298390.71,23435,5.38,71636.5,-5.85,-12.21,-10.93,0,*50
1484298391.95,23436,5.38,71638.8,-5.83,-12.25,-10.79,0,*55
1484298393.21,23437,5.38,71636.3,-5.85,-11.97,-10.57,0,*54
1484298394.46,23438,5.38,71638.0,-5.85,-11.81,-10.31,0,*5C
1484298395.72,23439,5.38,71642.5,-5.85,-11.51,-10.19,0,*5A
1484298396.95,23440,5.38,71634.5,-5.85,-11.15,-10.09,0,*55
1484298398.19,23441,5.38,71636.3,-5.85,-10.93,-10.01,0,*53
1484298399.44,23442,5.38,71636.8,-5.85,-10.71,-9.89,0,*64
1484298400.67,23443,5.38,71636.5,-5.85,-10.57,-9.71,0,*66
1484298401.94,23444,5.38,71638.3,-5.85,-10.41,-9.61,0,*67
1484298403.17,23445,5.38,71636.8,-5.83,-10.27,-9.49,0,*6A
1484298404.41,23446,5.38,71638.0,-5.85,-10.09,-9.49,0,*63
1484298405.62,23447,5.38,71632.8,-5.85,-9.89,-9.31,0,*5D
1484298406.85,23448,5.38,71638.0,-5.85,-9.89,-9.37,0,*54
1484298408.07,23449,5.38,71640.0,-5.85,-9.71,-9.31,0,*54
1484298409.3,23450,5.38,71638.0,-5.85,-9.57,-9.19,0,*52
1484298410.54,23451,5.38,71636.0,-5.85,-9.61,-9.31,0,*5C
1484298411.77,23452,5.38,71642.5,-5.85,-9.89,-9.57,0,*59
1484298412.98,23453,5.38,71636.0,-5.83,-9.89,-9.49,0,*51
1484298414.22,23454,5.38,71634.8,-5.85,-9.61,-9.19,0,*53
1484298415.46,23455,5.38,71632.5,-5.85,-9.45,-9.01,0,*5D
1484298416.71,23456,5.38,71636.5,-5.85,-9.49,-9.01,0,*52
1484298417.93,23457,5.38,71636.0,-5.83,-9.49,-9.05,0,*51
1484298419.13,23458,5.38,71636.0,-5.83,-9.27,-9.01,0,*52
1484298420.38,23459,5.38,71636.8,-5.85,-9.37,-9.05,0,*50
1484298421.62,23460,5.31,71630.3,-5.83,-9.49,-9.15,0,*54
1484298422.85,23461,5.38,71628.0,-5.83,-9.57,-9.15,0,*5A
1484298424.09,23462,5.38,71628.8,-5.85,-9.89,-9.37,0,*5C
1484298425.28,23463,5.38,71630.0,-5.83,-9.89,-9.05,0,*5A
1484298426.49,23464,5.38,71626.0,-5.83,-9.83,-9.05,0,*57
1484298427.72,23465,5.38,71624.5,-5.85,-9.71,-8.89,0,*58
1484298428.96,23466,5.38,71622.3,-5.83,-9.45,-8.51,0,*5F
1484298430.17,23467,5.38,71624.8,-5.83,-9.45,-8.63,0,*5F
1484298431.37,23468,5.38,71630.3,-5.83,-9.31,-8.41,0,*53
1484298432.59,23469,5.38,71636.5,-5.83,-9.19,-8.51,0,*59
1484298433.82,23470,5.38,71634.5,-5.77,-8.89,-8.29,0,*5D
1484298435.04,23471,5.38,71630.8,-5.77,-8.97,-8.45,0,*59
1484298436.29,23472,5.38,71632.8,-5.77,-9.01,-8.51,0,*51
1484298437.49,23473,5.38,71634.3,-5.79,-9.01,-8.63,0,*5F
1484298438.7,23474,5.38,71634.3,-5.79,-8.75,-8.37,0,*5B
1484298439.93,23475,5.38,71634.3,-5.77,-8.85,-8.37,0,*5B
1484298441.15,23476,5.38,71632.8,-5.77,-8.75,-8.37,0,*57
1484298442.38,23477,5.38,71632.8,-5.77,-8.85,-8.45,0,*5C
1484298443.6,23478,5.38,71634.0,-5.77,-8.97,-8.59,0,*5D
1484298444.82,23479,5.38,71638.8,-5.77,-8.75,-8.45,0,*5D
1484298446.04,23480,5.38,71640.3,-5.77,-8.75,-8.29,0,*51
1484298447.27,23481,5.38,71638.5,-5.77,-8.85,-8.45,0,*55
1484298448.5,23482,5.38,71640.5,-5.77,-8.71,-8.29,0,*57
1484298449.69,23483,5.38,71638.3,-5.75,-8.67,-8.33,0,*58
1484298450.89,23484,5.38,71636.3,-5.75,-8.93,-8.59,0,*58
1484298452.08,23485,5.38,71638.0,-5.75,-8.59,-8.41,0,*56
1484298453.3,23486,5.38,71636.0,-5.73,-8.59,-8.29,0,*5D
1484298454.5,23487,5.38,71638.0,-5.75,-8.67,-8.29,0,*57
1484298455.72,23488,5.38,71636.3,-5.73,-8.55,-8.25,0,*53
1484298456.94,23489,5.38,71638.0,-5.75,-8.45,-8.11,0,*52
1484298458.14,23490,5.38,71638.5,-5.75,-8.67,-8.29,0,*51
1484298459.35,23491,5.38,71636.5,-5.73,-8.59,-8.29,0,*5B
1484298460.55,23492,5.38,71640.5,-5.75,-8.67,-8.25,0,*5F
1484298461.77,23493,5.38,71640.5,-5.73,-8.93,-8.71,0,*52
1484298463.0,23494,5.38,71640.3,-5.73,-8.93,-8.71,0,*55
1484298464.19,23495,5.38,71640.8,-5.75,-8.97,-8.71,0,*56
1484298465.4,23496,5.38,71644.3,-5.75,-9.05,-8.85,0,*54
1484298466.61,23497,5.38,71642.0,-5.73,-8.97,-8.71,0,*52
1484298467.81,23498,5.38,71636.8,-5.75,-8.97,-8.71,0,*5B
1484298469.02,23499,5.38,71638.3,-5.75,-8.81,-8.59,0,*57
1484298470.24,23500,5.38,71638.8,-5.73,-8.67,-8.59,0,*58
1484298471.5,23501,5.38,71634.8,-5.73,-8.81,-8.81,0,*54
1484298472.7,23502,5.38,71634.3,-5.75,-8.71,-8.67,0,*56
1484298473.89,23503,5.38,71634.5,-5.75,-8.55,-8.59,0,*5C
1484298475.11,23504,5.38,71636.5,-5.73,-8.59,-8.71,0,*5B
1484298476.31,23505,5.38,71630.5,-5.75,-8.71,-8.93,0,*5A
1484298477.54,23506,5.38,71636.0,-5.73,-8.71,-8.93,0,*5F
1484298478.76,23507,5.38,71632.5,-5.75,-8.81,-8.97,0,*53
1484298480.0,23508,5.38,71632.5,-5.73,-8.81,-8.97,0,*5A
1484298481.25,23509,5.38,71632.3,-5.73,-8.81,-8.97,0,*5B
1484298482.47,23510,5.38,71634.0,-5.73,-8.93,-9.05,0,*5A
1484298483.68,23511,5.38,71638.0,-5.71,-8.89,-9.01,0,*56
1484298484.89,23512,5.38,71636.8,-5.71,-8.89,-8.93,0,*5F
1484298486.1,23513,5.38,71634.8,-5.71,-8.93,-9.01,0,*5F
1484298487.31,23514,5.38,71632.5,-5.71,-8.89,-8.93,0,*59
1484298488.52,23515,5.38,71636.3,-5.71,-8.89,-8.93,0,*58
1484298489.73,23516,5.38,71634.0,-5.71,-8.93,-9.01,0,*5A
1484298490.93,23517,5.38,71630.8,-5.71,-9.01,-8.93,0,*5B
1484298492.14,23518,5.38,71632.3,-5.71,-9.05,-9.05,0,*5E
1484298493.37,23519,5.38,71636.5,-5.71,-9.19,-9.37,0,*53
1484298494.57,23520,5.38,71634.3,-5.71,-8.75,-9.05,0,*53
1484298495.85,23521,5.38,71634.3,-5.69,-9.15,-9.53,0,*5F
1484298497.06,23522,5.38,71632.3,-5.71,-9.19,-9.71,0,*59
1484298498.27,23523,5.38,71632.3,-5.71,-9.05,-9.71,0,*55
1484298499.5,23524,5.38,71630.3,-5.71,-9.15,-9.75,0,*57
1484298500.73,23525,5.38,71628.3,-5.69,-9.19,-9.79,0,*5F
1484298501.96,23526,5.38,71626.0,-5.71,-9.19,-9.83,0,*50
1484298503.22,23527,5.38,71624.8,-5.71,-9.15,-9.83,0,*5D
1484298504.45,23528,5.38,71626.5,-5.69,-9.01,-9.67,0,*54
1484298505.7,23529,5.38,71630.5,-5.69,-9.11,-9.67,0,*54
1484298506.96,23530,5.38,71628.3,-5.69,-9.41,-10.01,0,*61
1484298508.23,23531,5.38,71630.5,-5.69,-9.41,-10.01,0,*60